User: anonymous   Login
Location: Esp�n
(42.4593°N, 0.2047°W)
Time: 18:38:56
(UTC+00:00)
Language:

Cosmos 1408 - Orbit

View from above orbital plane
View from above orbital plane
View from above satellite
View from above satellite

Ground track
Ground track

The orbit data is extracted from the following two-line orbital elements,

1 13552U 82092A   21212.76348383  .00001524  00000-0  52725-4 0  9994
2 13552  82.5649 229.8486 0018905 123.3756 236.9297 15.28884899126561
Epoch (UTC): 31 July 2021 18:19:25
Eccentricity: 0.0018905
inclination: 82.5649°
perigee height: 466 km
apogee height: 492 km
right ascension of ascending node: 229.8486°
argument of perigee: 123.3756°
revolutions per day: 15.28884899
mean anomaly at epoch: 236.9297°
orbit number at epoch: 12656

The dashed part of the orbit path shows where the satellite is in the earth's shadow,  

DLR